This is the latest recevied weather packets stored in our database for station/object CQ0XVC-11. If no packets are shown the sender has not sent any weather packets the latest 10 day(s).
| Time | Temp. | Humidity | Pressure | Rain* | Wind** | Luminosity | Snow |
|---|---|---|---|---|---|---|---|
| 1778061293 | 15.56° C | 47% | 1001 hPa | 0 mm | - | - | - |
| 1778061255 | 15.56° C | 47% | 1001 hPa | 0 mm | - | - | - |
| 1778060983 | 15° C | 46% | 1000.9 hPa | 0 mm | - | - | - |
| 1778060952 | 15° C | 46% | 1000.9 hPa | 0 mm | - | - | - |
| 1778060709 | 15° C | 50% | 1001.1 hPa | 0 mm | - | - | - |
| 1778060651 | 15° C | 50% | 1001.1 hPa | 0 mm | - | - | - |
| 1778060384 | 15° C | 51% | 1000.9 hPa | 0 mm | - | - | - |
| 1778060348 | 15° C | 51% | 1000.9 hPa | 0 mm | - | - | - |
| 1778060046 | 15° C | 53% | 1001.1 hPa | 0 mm | - | - | - |
| 1778059744 | 15° C | 53% | 1001 hPa | 0 mm | - | - | - |
| 1778059474 | 15° C | 54% | 1001.1 hPa | 0 mm | - | - | - |
| 1778059443 | 15° C | 54% | 1001.1 hPa | 0 mm | - | - | - |
| 1778059140 | 14.44° C | 56% | 1001.2 hPa | 0 mm | - | - | - |
| 1778058899 | 14.44° C | 56% | 1001.4 hPa | 0 mm | - | - | - |
| 1778058838 | 14.44° C | 56% | 1001.4 hPa | 0 mm | - | - | - |
| 1778058536 | 14.44° C | 59% | 1001.1 hPa | 0 mm | - | - | - |
| 1778058233 | 13.89° C | 59% | 1001.2 hPa | 0 mm | - | - | - |
| 1778057931 | 13.89° C | 58% | 1001.2 hPa | 0 mm | - | - | - |
| 1778057629 | 13.89° C | 59% | 1001 hPa | 0 mm | - | - | - |
| 1778057326 | 13.89° C | 59% | 1001.2 hPa | 0 mm | - | - | - |
| 1778057071 | 13.33° C | 59% | 1001.4 hPa | 0 mm | - | - | - |
| 1778057026 | 13.33° C | 59% | 1001.4 hPa | 0 mm | - | - | - |
| 1778056722 | 13.33° C | 59% | 1001.3 hPa | 0 mm | - | - | - |
| 1778056422 | 13.33° C | 60% | 1001.4 hPa | 0 mm | - | - | - |
| 1778056164 | 13.33° C | 59% | 1001.2 hPa | 0 mm | - | - | - |
* Rain since midnight (hover to see other rain measurements)
** Current wind speed in m/s (hover to see current wind gust speed)